| time (UTC) | temp F | wind direction | speed knots | gust knots | rain 1hr in | rain 24hr in | rain mn in | humidity % | barometer mb |
| 20260904123508 | 77 | 207 | 0.0 | 1.7 | 0.00 | 0.00 | 0.00 | 82 | 1016.2 |
| 20260904123011 | 77 | 207 | 0.9 | 1.7 | 0.00 | 0.00 | 0.00 | 82 | 1016.3 |
| 20260904122507 | 77 | 214 | 0.9 | 1.7 | 0.00 | 0.00 | 0.00 | 82 | 1016.3 |
| 20260904122013 | 77 | 217 | 0.9 | 0.9 | 0.00 | 0.00 | 0.00 | 82 | 1016.3 |
| 20260904121519 | 76 | 217 | 0.9 | 1.7 | 0.00 | 0.00 | 0.00 | 82 | 1016.3 |
| 20260904121011 | 76 | 217 | 0.0 | 1.7 | 0.00 | 0.00 | 0.00 | 82 | 1016.3 |
| 20260904120510 | 76 | 217 | 0.0 | 1.7 | 0.00 | 0.00 | 0.00 | 82 | 1016.2 |
| 20260904120026 | 76 | 217 | 0.0 | 1.7 | 0.00 | 0.00 | 0.00 | 82 | 1016.2 |
| 20260904115514 | 76 | 217 | 0.0 | 1.7 | 0.00 | 0.00 | 0.00 | 82 | 1016.1 |
| 20260904115015 | 76 | 217 | 0.9 | 1.7 | 0.00 | 0.00 | 0.00 | 82 | 1016.1 |
| 20260904114530 | 76 | 205 | 0.0 | 1.7 | 0.00 | 0.00 | 0.00 | 82 | 1015.9 |
| 20260904114004 | 76 | 215 | 0.0 | 1.7 | 0.00 | 0.00 | 0.00 | 82 | 1015.9 |
| 20260904113506 | 76 | 215 | 0.0 | 1.7 | 0.00 | 0.00 | 0.00 | 1015.7 | |
| 20260904113009 | 76 | 215 | 0.9 | 1.7 | 0.00 | 0.00 | 0.00 | 81 | 1015.6 |
| 20260904112506 | 76 | 225 | 0.9 | 1.7 | 0.00 | 0.00 | 0.00 | 81 | 1015.5 |
| 20260904112007 | 76 | 209 | 0.9 | 3.5 | 0.00 | 0.00 | 0.00 | 80 | 1015.4 |
| 20260904111513 | 77 | 233 | 0.9 | 4.3 | 0.00 | 0.00 | 0.00 | 80 | 1015.2 |
| 20260904111008 | 77 | 220 | 1.7 | 5.2 | 0.00 | 0.00 | 0.00 | 80 | 1014.9 |
| 20260904110512 | 76 | 221 | 1.7 | 5.2 | 0.00 | 0.00 | 0.00 | 81 | 1014.7 |
| 20260904110025 | 76 | 219 | 2.6 | 5.2 | 0.00 | 0.00 | 0.00 | 81 | 1014.7 |
| 20260904105515 | 76 | 211 | 1.7 | 3.5 | 0.00 | 0.00 | 0.00 | 81 | 1014.8 |
| 20260904105013 | 76 | 209 | 0.9 | 2.6 | 0.00 | 0.00 | 0.00 | 81 | 1014.9 |
| 20260904104534 | 76 | 197 | 0.9 | 1.7 | 0.00 | 0.00 | 0.00 | 81 | 1014.9 |
| 20260904104016 | 76 | 215 | 0.0 | 1.7 | 0.00 | 0.00 | 0.00 | 81 | 1014.9 |
| 20260904103517 | 76 | 215 | 0.9 | 1.7 | 0.00 | 0.00 | 0.00 | 81 | 1014.9 |
| 20260904103008 | 76 | 230 | 0.9 | 1.7 | 0.00 | 0.00 | 0.00 | 81 | 1014.8 |
| 20260904102504 | 76 | 218 | 0.9 | 1.7 | 0.00 | 0.00 | 0.00 | 81 | 1014.8 |
| 20260904102006 | 76 | 219 | 0.0 | 1.7 | 0.00 | 0.00 | 0.00 | 81 | 1014.9 |
| 20260904101514 | 76 | 215 | 0.0 | 1.7 | 0.00 | 0.00 | 0.00 | 81 | 1014.7 |
| 20260904101007 | 76 | 215 | 0.9 | 1.7 | 0.00 | 0.00 | 0.00 | 81 | 1014.8 |
| 20260904100508 | 76 | 215 | 0.0 | 1.7 | 0.00 | 0.00 | 0.00 | 81 | 1014.9 |
| 20260904100018 | 76 | 215 | 0.9 | 1.7 | 0.00 | 0.00 | 0.00 | 81 | 1014.9 |
| 20260904095511 | 76 | 257 | 0.9 | 0.9 | 0.00 | 0.00 | 0.00 | 81 | 1014.9 |
| 20260904095013 | 76 | 273 | 0.0 | 1.7 | 0.00 | 0.00 | 0.00 | 81 | 1015.0 |
| 20260904094534 | 76 | 272 | 0.0 | 1.7 | 0.00 | 0.00 | 0.00 | 81 | 1015.0 |
| 20260904094012 | 76 | 273 | 0.0 | 1.7 | 0.00 | 0.00 | 0.00 | 81 | 1015.0 |
| 20260904093516 | 76 | 222 | 0.0 | 2.6 | 0.00 | 0.00 | 0.00 | 80 | 1015.0 |
| 20260904093031 | 77 | 220 | 0.0 | 2.6 | 0.00 | 0.00 | 0.00 | 80 | 1014.9 |
| 20260904092515 | 77 | 205 | 0.9 | 2.6 | 0.00 | 0.00 | 0.00 | 80 | 1014.9 |
| 20260904092004 | 77 | 211 | 0.9 | 2.6 | 0.00 | 0.00 | 0.00 | 80 | 1015.0 |
| 20260904091525 | 77 | 227 | 0.9 | 2.6 | 0.00 | 0.00 | 0.00 | 80 | 1015.1 |
| 20260904091006 | 77 | 217 | 0.9 | 2.6 | 0.00 | 0.00 | 0.00 | 80 | 1014.8 |
| 20260904090509 | 77 | 205 | 0.9 | 3.5 | 0.00 | 0.00 | 0.00 | 80 | 1014.7 |
| 20260904090015 | 77 | 225 | 1.7 | 3.5 | 0.00 | 0.00 | 0.00 | 79 | 1014.7 |
| 20260904085508 | 77 | 212 | 1.7 | 3.5 | 0.00 | 0.00 | 0.00 | 80 | 1014.7 |
| 20260904085013 | 77 | 216 | 1.7 | 3.5 | 0.00 | 0.00 | 0.00 | 80 | 1014.4 |
| 20260904084523 | 77 | 207 | 1.7 | 3.5 | 0.00 | 0.00 | 0.00 | 81 | 1014.4 |
| 20260904084014 | 77 | 207 | 1.7 | 3.5 | 0.00 | 0.00 | 0.00 | 81 | 1014.5 |
| 20260904083515 | 76 | 207 | 1.7 | 4.3 | 0.00 | 0.00 | 0.00 | 81 | 1014.5 |
| 20260904083033 | 76 | 215 | 1.7 | 4.3 | 0.00 | 0.00 | 0.00 | 81 | 1014.5 |
| 20260904082515 | 76 | 205 | 1.7 | 2.6 | 0.00 | 0.00 | 0.00 | 82 | 1014.6 |
| 20260904082012 | 76 | 222 | 0.9 | 2.6 | 0.00 | 0.00 | 0.00 | 83 | 1014.7 |
| 20260904081533 | 76 | 209 | 0.9 | 3.5 | 0.00 | 0.00 | 0.00 | 83 | 1014.8 |
| 20260904081004 | 76 | 194 | 1.7 | 3.5 | 0.00 | 0.00 | 0.00 | 1014.7 | |
| 20260904080503 | 76 | 194 | 1.7 | 2.6 | 0.00 | 0.00 | 0.00 | 84 | 1014.9 |
| 20260904080014 | 75 | 202 | 1.7 | 1.7 | 0.00 | 0.00 | 0.00 | 84 | 1015.0 |
| 20260904075508 | 75 | 204 | 0.9 | 2.6 | 0.00 | 0.00 | 0.00 | 84 | 1015.1 |
| 20260904075011 | 75 | 204 | 1.7 | 2.6 | 0.00 | 0.00 | 0.00 | 84 | 1015.1 |
| 20260904074532 | 75 | 202 | 0.9 | 1.7 | 0.00 | 0.00 | 0.00 | 85 | 1015.1 |
| 20260904074013 | 75 | 202 | 0.9 | 2.6 | 0.00 | 0.00 | 0.00 | 85 | 1015.2 |
| 20260904073512 | 75 | 212 | 0.9 | 2.6 | 0.00 | 0.00 | 0.00 | 85 | 1015.2 |
| 20260904073031 | 74 | 200 | 0.9 | 1.7 | 0.00 | 0.00 | 0.00 | 86 | 1015.3 |
| 20260904072516 | 74 | 200 | 0.0 | 1.7 | 0.00 | 0.00 | 0.00 | 86 | 1015.4 |
| 20260904072014 | 74 | 200 | 0.9 | 1.7 | 0.00 | 0.00 | 0.00 | 86 | 1015.4 |
| 20260904071546 | 74 | 200 | 0.9 | 1.7 | 0.00 | 0.00 | 0.00 | 86 | 1015.4 |
| 20260904071019 | 74 | 200 | 0.9 | 1.7 | 0.00 | 0.00 | 0.00 | 86 | 1015.5 |
| 20260904070516 | 74 | 200 | 0.9 | 1.7 | 0.00 | 0.00 | 0.00 | 86 | 1015.6 |
| 20260904070011 | 74 | 200 | 0.0 | 0.9 | 0.00 | 0.00 | 0.00 | 86 | 1015.6 |
| 20260904065507 | 74 | 200 | 0.9 | 1.7 | 0.00 | 0.00 | 0.00 | 85 | 1015.7 |
| 20260904065007 | 74 | 200 | 0.0 | 1.7 | 0.00 | 0.00 | 0.00 | 86 | 1015.6 |
| 20260904064516 | 74 | 200 | 0.0 | 1.7 | 0.00 | 0.00 | 0.00 | 86 | 1015.7 |
| 20260904064008 | 74 | 200 | 0.0 | 1.7 | 0.00 | 0.00 | 0.00 | 86 | 1015.7 |
| 20260904063512 | 73 | 200 | 0.0 | 2.6 | 0.00 | 0.00 | 0.00 | 86 | 1015.7 |
| 20260904063037 | 73 | 200 | 0.9 | 2.6 | 0.00 | 0.00 | 0.00 | 86 | 1015.6 |
| 20260904062513 | 73 | 199 | 0.9 | 2.6 | 0.00 | 0.00 | 0.00 | 86 | 1015.6 |
| 20260904062015 | 73 | 205 | 0.9 | 1.7 | 0.00 | 0.00 | 0.00 | 86 | 1015.7 |
| 20260904061530 | 73 | 205 | 0.0 | 1.7 | 0.00 | 0.00 | 0.00 | 87 | 1015.8 |
| 20260904061018 | 73 | 205 | 0.0 | 1.7 | 0.00 | 0.00 | 0.00 | 86 | 1015.8 |
| 20260904060519 | 73 | 205 | 0.0 | 1.7 | 0.00 | 0.00 | 0.00 | 86 | 1015.9 |
| 20260904060033 | 73 | 205 | 0.0 | 1.7 | 0.00 | 0.00 | 0.00 | 86 | 1015.9 |
| 20260904055521 | 73 | 205 | 0.9 | 2.6 | 0.00 | 0.00 | 0.00 | 86 | 1016.0 |
| 20260904055007 | 73 | 195 | 1.7 | 2.6 | 0.00 | 0.00 | 0.00 | 86 | 1015.9 |
| 20260904054515 | 73 | 214 | 0.0 | 1.7 | 0.00 | 0.00 | 0.00 | 86 | 1016.0 |
| 20260904054001 | 73 | 206 | 0.9 | 1.7 | 0.00 | 0.00 | 0.00 | 86 | 1016.0 |
| 20260904053502 | 73 | 206 | 0.0 | 1.7 | 0.00 | 0.00 | 0.00 | 85 | 1016.0 |
| 20260904053005 | 73 | 206 | 0.9 | 1.7 | 0.00 | 0.00 | 0.00 | 86 | 1016.0 |
| 20260904052503 | 73 | 206 | 0.9 | 0.9 | 0.00 | 0.00 | 0.00 | 85 | 1016.1 |
| 20260904052003 | 73 | 206 | 0.0 | 1.7 | 0.00 | 0.00 | 0.00 | 85 | 1016.0 |
| 20260904051504 | 73 | 206 | 0.0 | 1.7 | 0.00 | 0.00 | 0.00 | 86 | 1016.1 |
| 20260904051003 | 73 | 206 | 0.0 | 2.6 | 0.00 | 0.00 | 0.00 | 86 | 1016.0 |
| 20260904050504 | 72 | 202 | 0.9 | 2.6 | 0.00 | 0.00 | 0.00 | 86 | 1016.0 |
| 20260904050003 | 72 | 180 | 0.0 | 1.7 | 0.00 | 0.00 | 0.00 | 86 | 1016.1 |
| 20260904045505 | 72 | 180 | 0.0 | 2.6 | 0.00 | 0.00 | 0.00 | 86 | 1016.0 |
| 20260904045003 | 72 | 190 | 0.0 | 2.6 | 0.00 | 0.00 | 0.00 | 86 | 1016.0 |
| 20260904044504 | 72 | 190 | 0.9 | 2.6 | 0.00 | 0.00 | 0.00 | 86 | 1016.0 |
| 20260904044003 | 72 | 205 | 0.9 | 1.7 | 0.00 | 0.00 | 0.00 | 87 | 1016.0 |
| 20260904043502 | 72 | 205 | 0.0 | 1.7 | 0.00 | 0.00 | 0.00 | 86 | 1015.9 |
| 20260904043003 | 72 | 205 | 0.0 | 1.7 | 0.00 | 0.00 | 0.00 | 86 | 1016.0 |
| 20260904042504 | 72 | 205 | 0.0 | 1.7 | 0.00 | 0.00 | 0.00 | 86 | 1015.9 |
| 20260904042003 | 73 | 205 | 0.0 | 1.7 | 0.00 | 0.00 | 0.00 | 86 | 1016.0 |
| 20260904041508 | 73 | 205 | 0.0 | 1.7 | 0.00 | 0.00 | 0.00 | 85 | 1016.0 |
| 20260904041002 | 73 | 205 | 0.0 | 1.7 | 0.00 | 0.00 | 0.00 | 85 | 1015.9 |
| 20260904040502 | 73 | 205 | 0.0 | 1.7 | 0.00 | 0.00 | 0.00 | 85 | 1015.9 |
| 20260904040004 | 73 | 205 | 0.9 | 1.7 | 0.00 | 0.00 | 0.00 | 85 | 1015.9 |
| 20260904035506 | 73 | 205 | 0.9 | 0.9 | 0.00 | 0.00 | 0.00 | 84 | 1015.8 |
| 20260904035003 | 73 | 135 | 0.0 | 1.7 | 0.00 | 0.00 | 0.00 | 84 | 1015.8 |
| 20260904034503 | 73 | 135 | 0.9 | 1.7 | 0.00 | 0.00 | 0.00 | 84 | 1015.8 |
| 20260904034003 | 73 | 135 | 0.0 | 0.9 | 0.00 | 0.00 | 0.00 | 84 | 1015.8 |
| 20260904033503 | 73 | 135 | 0.0 | 1.7 | 0.00 | 0.00 | 0.00 | 84 | 1015.8 |
| 20260904033003 | 73 | 135 | 0.9 | 1.7 | 0.00 | 0.00 | 0.00 | 84 | 1015.9 |
| 20260904032503 | 74 | 135 | 0.0 | 2.6 | 0.00 | 0.00 | 0.00 | 85 | 1016.0 |
| 20260904032003 | 74 | 135 | 0.9 | 2.6 | 0.00 | 0.00 | 0.00 | 84 | 1016.1 |
| 20260904031504 | 74 | 142 | 1.7 | 2.6 | 0.00 | 0.00 | 0.00 | 84 | 1016.0 |
| 20260904031004 | 74 | 123 | 0.0 | 1.7 | 0.00 | 0.00 | 0.00 | 84 | 1016.1 |
| 20260904030503 | 74 | 123 | 0.9 | 1.7 | 0.00 | 0.00 | 0.00 | 84 | 1016.1 |
| 20260904030007 | 74 | 120 | 0.0 | 1.7 | 0.00 | 0.00 | 0.00 | 84 | 1016.0 |
| 20260904025503 | 74 | 120 | 0.9 | 2.6 | 0.00 | 0.00 | 0.00 | 84 | 1016.0 |
| 20260904025003 | 74 | 138 | 0.9 | 2.6 | 0.00 | 0.00 | 0.00 | 84 | 1016.1 |
| 20260904024503 | 74 | 142 | 1.7 | 2.6 | 0.00 | 0.00 | 0.00 | 84 | 1016.1 |
| 20260904024003 | 74 | 143 | 0.9 | 1.7 | 0.00 | 0.00 | 0.00 | 85 | 1016.2 |
| 20260904023505 | 74 | 144 | 0.9 | 3.5 | 0.00 | 0.00 | 0.00 | 85 | 1016.2 |
| 20260904023008 | 74 | 144 | 1.7 | 3.5 | 0.00 | 0.00 | 0.00 | 85 | 1016.3 |
| 20260904022505 | 74 | 135 | 1.7 | 2.6 | 0.00 | 0.00 | 0.00 | 86 | 1016.3 |
| 20260904022002 | 74 | 141 | 0.9 | 1.7 | 0.00 | 0.00 | 0.00 | 87 | 1016.3 |
| 20260904021512 | 74 | 69 | 0.9 | 2.6 | 0.00 | 0.00 | 0.00 | 86 | 1016.3 |
| 20260904021003 | 74 | 69 | 0.9 | 2.6 | 0.00 | 0.00 | 0.00 | 86 | 1016.4 |
| 20260904020503 | 74 | 74 | 1.7 | 2.6 | 0.00 | 0.00 | 0.00 | 85 | 1016.3 |
| 20260904020004 | 74 | 132 | 0.9 | 2.6 | 0.00 | 0.00 | 0.00 | 85 | 1016.3 |
| 20260904015503 | 74 | 134 | 1.7 | 1.7 | 0.00 | 0.00 | 0.00 | 85 | 1016.4 |
| 20260904015003 | 74 | 70 | 0.0 | 1.7 | 0.00 | 0.00 | 0.00 | 84 | 1016.3 |
| 20260904014505 | 75 | 70 | 0.0 | 2.6 | 0.00 | 0.00 | 0.00 | 84 | 1016.3 |
| 20260904014003 | 75 | 70 | 0.9 | 2.6 | 0.00 | 0.00 | 0.00 | 84 | 1016.4 |
| 20260904013504 | 75 | 98 | 0.0 | 1.7 | 0.00 | 0.00 | 0.00 | 83 | 1016.4 |
| 20260904013004 | 75 | 139 | 0.0 | 1.7 | 0.00 | 0.00 | 0.00 | 82 | 1016.3 |
| 20260904012504 | 75 | 162 | 0.9 | 2.6 | 0.00 | 0.00 | 0.00 | 83 | 1016.1 |
| 20260904012004 | 75 | 155 | 0.9 | 2.6 | 0.00 | 0.00 | 0.00 | 84 | 1016.0 |
| 20260904011506 | 75 | 140 | 0.9 | 2.6 | 0.00 | 0.00 | 0.00 | 84 | 1016.1 |
| 20260904011003 | 75 | 214 | 0.9 | 1.7 | 0.00 | 0.00 | 0.00 | 83 | 1016.2 |
| 20260904010505 | 75 | 215 | 0.9 | 1.7 | 0.00 | 0.00 | 0.00 | 82 | 1016.2 |
| 20260904010004 | 75 | 217 | 0.9 | 1.7 | 0.00 | 0.00 | 0.00 | 82 | 1016.0 |
| 20260904005504 | 75 | 283 | 0.9 | 1.7 | 0.00 | 0.00 | 0.00 | 81 | 1016.1 |
| 20260904005003 | 75 | 64 | 0.0 | 1.7 | 0.00 | 0.00 | 0.00 | 82 | 1016.0 |
| 20260904004504 | 75 | 63 | 0.0 | 2.6 | 0.00 | 0.00 | 0.00 | 81 | 1016.0 |
| 20260904004005 | 75 | 63 | 0.9 | 3.5 | 0.00 | 0.00 | 0.00 | 81 | 1015.8 |
| 20260904003503 | 75 | 74 | 1.7 | 4.3 | 0.00 | 0.00 | 0.00 | 81 | 1015.9 |
| 20260904003006 | 76 | 72 | 2.6 | 4.3 | 0.00 | 0.00 | 0.00 | 80 | 1015.8 |
| 20260904002504 | 76 | 57 | 1.7 | 4.3 | 0.00 | 0.00 | 0.00 | 79 | 1016.0 |
| 20260904002004 | 76 | 65 | 2.6 | 6.1 | 0.00 | 0.00 | 0.00 | 78 | 1015.8 |
| 20260904001503 | 77 | 59 | 0.9 | 8.7 | 0.00 | 0.00 | 0.00 | 78 | 1015.9 |
| 20260904001003 | 77 | 57 | 3.5 | 8.7 | 0.00 | 0.00 | 0.00 | 77 | 1015.8 |
| 20260904000506 | 77 | 59 | 4.3 | 7.8 | 0.00 | 0.00 | 0.00 | 76 | 1016.0 |
| 20260904000007 | 78 | 74 | 5.2 | 9.6 | 0.00 | 0.00 | 0.00 | 75 | 1015.9 |
| 20260903235504 | 79 | 61 | 4.3 | 9.6 | 0.00 | 0.00 | 0.00 | 75 | 1015.9 |
| 20260903235004 | 79 | 65 | 3.5 | 12.2 | 0.00 | 0.00 | 0.00 | 73 | 1015.7 |
| 20260903234510 | 80 | 75 | 7.0 | 12.2 | 0.00 | 0.00 | 0.00 | 71 | 1015.6 |
| 20260903234004 | 82 | 47 | 4.3 | 8.7 | 0.00 | 0.00 | 0.00 | 69 | 1016.0 |
| 20260903233505 | 85 | 45 | 4.3 | 8.7 | 0.00 | 0.00 | 0.00 | 63 | 1015.9 |
| 20260903233007 | 89 | 51 | 1.7 | 2.6 | 0.00 | 0.00 | 0.00 | 63 | 1015.6 |
| 20260903232504 | 90 | 213 | 0.0 | 1.7 | 0.00 | 0.00 | 0.00 | 60 | 1015.2 |
| 20260903232004 | 90 | 205 | 0.0 | 1.7 | 0.00 | 0.00 | 0.00 | 60 | 1015.0 |
| 20260903231506 | 91 | 252 | 0.0 | 1.7 | 0.00 | 0.00 | 0.00 | 59 | 1014.8 |
| 20260903231003 | 92 | 223 | 0.9 | 1.7 | 0.00 | 0.00 | 0.00 | 58 | 1014.8 |
| 20260903230503 | 92 | 230 | 0.9 | 2.6 | 0.00 | 0.00 | 0.00 | 57 | 1014.7 |
| 20260903230010 | 92 | 254 | 0.9 | 2.6 | 0.00 | 0.00 | 0.00 | 56 | 1014.7 |
| 20260903225505 | 92 | 205 | 0.9 | 1.7 | 0.00 | 0.00 | 0.00 | 57 | 1014.6 |
| 20260903225003 | 92 | 236 | 0.9 | 2.6 | 0.00 | 0.00 | 0.00 | 56 | 1014.7 |
| 20260903224507 | 93 | 217 | 0.9 | 2.6 | 0.00 | 0.00 | 0.00 | 55 | 1014.7 |
| 20260903224003 | 93 | 265 | 0.9 | 4.3 | 0.00 | 0.00 | 0.00 | 54 | 1014.7 |
| 20260903223502 | 93 | 240 | 1.7 | 4.3 | 0.00 | 0.00 | 0.00 | 54 | 1014.6 |
| 20260903223008 | 93 | 211 | 1.7 | 7.8 | 0.00 | 0.00 | 0.00 | 52 | 1014.5 |
| 20260903222503 | 93 | 315 | 0.9 | 7.8 | 0.00 | 0.00 | 0.00 | 53 | 1014.5 |
| 20260903222004 | 93 | 215 | 1.7 | 7.8 | 0.00 | 0.00 | 0.00 | 54 | 1014.5 |
| 20260903221512 | 93 | 211 | 1.7 | 7.8 | 0.00 | 0.00 | 0.00 | 53 | 1014.5 |
| 20260903221004 | 93 | 230 | 3.5 | 7.0 | 0.00 | 0.00 | 0.00 | 52 | 1014.6 |
| 20260903220505 | 93 | 215 | 2.6 | 6.1 | 0.00 | 0.00 | 0.00 | 53 | 1014.5 |
| 20260903220009 | 93 | 329 | 1.7 | 7.0 | 0.00 | 0.00 | 0.00 | 52 | 1014.4 |
| 20260903215504 | 93 | 313 | 1.7 | 7.0 | 0.00 | 0.00 | 0.00 | 52 | 1014.4 |
| 20260903215006 | 93 | 274 | 2.6 | 7.8 | 0.00 | 0.00 | 0.00 | 53 | 1014.4 |
| 20260903214506 | 94 | 306 | 3.5 | 7.8 | 0.00 | 0.00 | 0.00 | 51 | 1014.3 |
| 20260903214003 | 94 | 320 | 2.6 | 7.0 | 0.00 | 0.00 | 0.00 | 51 | 1014.3 |
| 20260903213503 | 94 | 305 | 2.6 | 7.0 | 0.00 | 0.00 | 0.00 | 51 | 1014.2 |
| 20260903213018 | 94 | 232 | 1.7 | 8.7 | 0.00 | 0.00 | 0.00 | 52 | 1014.1 |
| 20260903212503 | 94 | 216 | 2.6 | 11.3 | 0.00 | 0.00 | 0.00 | 52 | 1014.2 |
| 20260903212003 | 94 | 308 | 3.5 | 7.8 | 0.00 | 0.00 | 0.00 | 49 | 1014.3 |
| 20260903211508 | 94 | 208 | 3.5 | 7.8 | 0.00 | 0.00 | 0.00 | 50 | 1014.2 |
| 20260903211005 | 94 | 218 | 1.7 | 7.0 | 0.00 | 0.00 | 0.00 | 51 | 1014.2 |
| 20260903210504 | 94 | 184 | 2.6 | 7.0 | 0.00 | 0.00 | 0.00 | 52 | 1014.2 |
| 20260903210014 | 94 | 267 | 3.5 | 7.0 | 0.00 | 0.00 | 0.00 | 51 | 1014.2 |
| 20260903205503 | 94 | 242 | 2.6 | 8.7 | 0.00 | 0.00 | 0.00 | 52 | 1014.2 |
| 20260903205003 | 94 | 219 | 3.5 | 9.6 | 0.00 | 0.00 | 0.00 | 50 | 1014.3 |
| 20260903204509 | 94 | 318 | 2.6 | 9.6 | 0.00 | 0.00 | 0.00 | 50 | 1014.3 |
| 20260903204003 | 94 | 268 | 3.5 | 7.8 | 0.00 | 0.00 | 0.00 | 52 | 1014.2 |
| 20260903203507 | 94 | 5 | 2.6 | 7.0 | 0.00 | 0.00 | 0.00 | 50 | 1014.1 |
| 20260903203019 | 94 | 9 | 3.5 | 8.7 | 0.00 | 0.00 | 0.00 | 51 | 1014.1 |
| 20260903202504 | 94 | 205 | 5.2 | 8.7 | 0.00 | 0.00 | 0.00 | 53 | 1014.1 |
| 20260903202003 | 94 | 192 | 4.3 | 8.7 | 0.00 | 0.00 | 0.00 | 51 | 1014.1 |
| 20260903201507 | 94 | 222 | 2.6 | 8.7 | 0.00 | 0.00 | 0.00 | 52 | 1014.2 |
| 20260903201002 | 94 | 288 | 3.5 | 8.7 | 0.00 | 0.00 | 0.00 | 51 | 1014.2 |
| 20260903200504 | 94 | 331 | 3.5 | 8.7 | 0.00 | 0.00 | 0.00 | 52 | 1014.3 |
| 20260903200015 | 94 | 189 | 2.6 | 7.0 | 0.00 | 0.00 | 0.00 | 53 | 1014.5 |
| 20260903195504 | 94 | 218 | 2.6 | 7.0 | 0.00 | 0.00 | 0.00 | 52 | 1014.6 |
| 20260903195003 | 93 | 31 | 2.6 | 6.1 | 0.00 | 0.00 | 0.00 | 53 | 1014.7 |
| 20260903194532 | 93 | 350 | 3.5 | 6.1 | 0.00 | 0.00 | 0.00 | 55 | 1014.8 |
| 20260903194008 | 93 | 221 | 3.5 | 6.1 | 0.00 | 0.00 | 0.00 | 54 | 1014.9 |
| 20260903193503 | 94 | 210 | 2.6 | 7.0 | 0.00 | 0.00 | 0.00 | 53 | 1015.2 |
| 20260903193010 | 94 | 298 | 2.6 | 9.6 | 0.00 | 0.00 | 0.00 | 55 | 1015.2 |
| 20260903192505 | 94 | 208 | 3.5 | 9.6 | 0.00 | 0.00 | 0.00 | 52 | 1015.3 |
| 20260903192003 | 93 | 205 | 2.6 | 7.0 | 0.00 | 0.00 | 0.00 | 53 | 1015.5 |
| 20260903191512 | 93 | 298 | 4.3 | 7.0 | 0.00 | 0.00 | 0.00 | 53 | 1015.6 |
| 20260903191005 | 93 | 300 | 2.6 | 7.8 | 0.00 | 0.00 | 0.00 | 53 | 1015.6 |
| 20260903190503 | 93 | 306 | 2.6 | 7.8 | 0.00 | 0.00 | 0.00 | 53 | 1015.7 |
| 20260903190011 | 93 | 215 | 3.5 | 7.8 | 0.00 | 0.00 | 0.00 | 52 | 1015.7 |
| 20260903185508 | 93 | 311 | 3.5 | 7.8 | 0.00 | 0.00 | 0.00 | 54 | 1015.8 |
| 20260903185007 | 93 | 281 | 3.5 | 7.8 | 0.00 | 0.00 | 0.00 | 55 | 1015.8 |
| 20260903184513 | 93 | 296 | 2.6 | 7.0 | 0.00 | 0.00 | 0.00 | 55 | 1015.8 |
| 20260903184003 | 93 | 199 | 1.7 | 7.0 | 0.00 | 0.00 | 0.00 | 54 | 1015.9 |
| 20260903183505 | 93 | 227 | 2.6 | 7.0 | 0.00 | 0.00 | 0.00 | 54 | 1015.9 |
| 20260903183018 | 93 | 174 | 3.5 | 8.7 | 0.00 | 0.00 | 0.00 | 55 | 1015.9 |
| 20260903182508 | 93 | 230 | 2.6 | 8.7 | 0.00 | 0.00 | 0.00 | 54 | 1015.9 |
| 20260903182008 | 93 | 210 | 3.5 | 7.8 | 0.00 | 0.00 | 0.00 | 56 | 1015.9 |
| 20260903181511 | 93 | 311 | 2.6 | 7.0 | 0.00 | 0.00 | 0.00 | 56 | 1015.9 |
| 20260903181007 | 92 | 209 | 3.5 | 7.0 | 0.00 | 0.00 | 0.00 | 55 | 1015.9 |
| 20260903180506 | 92 | 201 | 2.6 | 6.1 | 0.00 | 0.00 | 0.00 | 58 | 1016.0 |
| 20260903180029 | 92 | 338 | 1.7 | 7.0 | 0.00 | 0.00 | 0.00 | 60 | 1015.9 |
| 20260903175507 | 92 | 214 | 2.6 | 7.0 | 0.00 | 0.00 | 0.00 | 58 | 1016.0 |
| 20260903175007 | 92 | 219 | 1.7 | 7.0 | 0.00 | 0.00 | 0.00 | 59 | 1016.0 |
| 20260903174515 | 92 | 183 | 3.5 | 7.0 | 0.00 | 0.00 | 0.00 | 58 | 1016.1 |
| 20260903174007 | 92 | 224 | 2.6 | 6.1 | 0.00 | 0.00 | 0.00 | 58 | 1016.1 |
| 20260903173507 | 92 | 226 | 2.6 | 6.1 | 0.00 | 0.00 | 0.00 | 57 | 1016.1 |
| 20260903173014 | 92 | 201 | 2.6 | 6.1 | 0.00 | 0.00 | 0.00 | 58 | 1016.2 |
| 20260903172506 | 91 | 212 | 2.6 | 7.0 | 0.00 | 0.00 | 0.00 | 60 | 1016.2 |
| 20260903172006 | 91 | 248 | 1.7 | 7.0 | 0.00 | 0.00 | 0.00 | 59 | 1016.2 |
| 20260903171516 | 91 | 210 | 2.6 | 7.8 | 0.00 | 0.00 | 0.00 | 59 | 1016.3 |
| 20260903171007 | 91 | 313 | 1.7 | 7.8 | 0.00 | 0.00 | 0.00 | 59 | 1016.3 |
| 20260903170507 | 91 | 239 | 1.7 | 7.0 | 0.00 | 0.00 | 0.00 | 59 | 1016.4 |
| 20260903170013 | 91 | 210 | 2.6 | 7.0 | 0.00 | 0.00 | 0.00 | 60 | 1016.5 |
| 20260903165506 | 91 | 200 | 2.6 | 6.1 | 0.00 | 0.00 | 0.00 | 58 | 1016.5 |
| 20260903165014 | 91 | 259 | 2.6 | 6.1 | 0.00 | 0.00 | 0.00 | 59 | 1016.6 |
| 20260903164514 | 91 | 215 | 2.6 | 6.1 | 0.00 | 0.00 | 0.00 | 60 | 1016.6 |
| 20260903164008 | 90 | 219 | 1.7 | 8.7 | 0.00 | 0.00 | 0.00 | 61 | 1016.6 |
| 20260903163506 | 90 | 200 | 1.7 | 8.7 | 0.00 | 0.00 | 0.00 | 61 | 1016.6 |
| 20260903163023 | 90 | 296 | 2.6 | 8.7 | 0.00 | 0.00 | 0.00 | 59 | 1016.7 |
| 20260903162507 | 90 | 246 | 3.5 | 8.7 | 0.00 | 0.00 | 0.00 | 61 | 1016.7 |
| 20260903162010 | 90 | 203 | 3.5 | 7.0 | 0.00 | 0.00 | 0.00 | 61 | 1016.8 |
| 20260903161515 | 90 | 273 | 2.6 | 6.1 | 0.00 | 0.00 | 0.00 | 61 | 1016.9 |
| 20260903161007 | 89 | 288 | 2.6 | 6.1 | 0.00 | 0.00 | 0.00 | 62 | 1017.0 |
| 20260903160512 | 89 | 211 | 2.6 | 6.1 | 0.00 | 0.00 | 0.00 | 62 | 1016.9 |
| 20260903160016 | 89 | 297 | 1.7 | 5.2 | 0.00 | 0.00 | 0.00 | 63 | 1016.9 |
| 20260903155509 | 89 | 207 | 1.7 | 7.0 | 0.00 | 0.00 | 0.00 | 63 | 1017.0 |
| 20260903155006 | 88 | 244 | 3.5 | 7.0 | 0.00 | 0.00 | 0.00 | 63 | 1017.1 |
| 20260903154518 | 88 | 210 | 3.5 | 6.1 | 0.00 | 0.00 | 0.00 | 62 | 1017.0 |
| 20260903154007 | 88 | 243 | 1.7 | 6.1 | 0.00 | 0.00 | 0.00 | 65 | 1016.9 |
| 20260903153508 | 88 | 320 | 1.7 | 7.0 | 0.00 | 0.00 | 0.00 | 64 | 1016.9 |
| 20260903153020 | 87 | 230 | 3.5 | 7.0 | 0.00 | 0.00 | 0.00 | 63 | 1017.0 |
| 20260903152508 | 87 | 201 | 3.5 | 7.8 | 0.00 | 0.00 | 0.00 | 64 | 1017.0 |
| 20260903152008 | 87 | 212 | 1.7 | 7.8 | 0.00 | 0.00 | 0.00 | 66 | 1017.0 |
| 20260903151525 | 87 | 217 | 2.6 | 7.0 | 0.00 | 0.00 | 0.00 | 66 | 1016.9 |
| 20260903151009 | 86 | 225 | 2.6 | 7.0 | 0.00 | 0.00 | 0.00 | 65 | 1016.8 |
| 20260903150510 | 86 | 288 | 2.6 | 7.0 | 0.00 | 0.00 | 0.00 | 66 | 1016.9 |
| 20260903150020 | 86 | 246 | 2.6 | 7.8 | 0.00 | 0.00 | 0.00 | 66 | 1016.8 |
| 20260903145511 | 86 | 207 | 2.6 | 7.8 | 0.00 | 0.00 | 0.00 | 67 | 1016.8 |
| 20260903145010 | 86 | 208 | 1.7 | 4.3 | 0.00 | 0.00 | 0.00 | 68 | 1016.8 |
| 20260903144519 | 86 | 237 | 2.6 | 7.8 | 0.00 | 0.00 | 0.00 | 67 | 1016.7 |
| 20260903144004 | 85 | 219 | 1.7 | 7.8 | 0.00 | 0.00 | 0.00 | 68 | 1016.7 |
| 20260903143508 | 85 | 236 | 2.6 | 6.1 | 0.00 | 0.00 | 0.00 | 70 | 1016.8 |
| 20260903143014 | 85 | 223 | 2.6 | 6.1 | 0.00 | 0.00 | 0.00 | 68 | 1016.7 |
| 20260903142506 | 85 | 243 | 1.7 | 5.2 | 0.00 | 0.00 | 0.00 | 70 | 1016.7 |
| 20260903142008 | 84 | 210 | 1.7 | 5.2 | 0.00 | 0.00 | 0.00 | 71 | 1016.6 |
| 20260903141522 | 84 | 229 | 2.6 | 5.2 | 0.00 | 0.00 | 0.00 | 71 | 1016.7 |
| 20260903141015 | 84 | 235 | 2.6 | 6.1 | 0.00 | 0.00 | 0.00 | 70 | 1016.8 |
| 20260903140502 | 84 | 179 | 2.6 | 6.1 | 0.00 | 0.00 | 0.00 | 70 | 1016.7 |
| 20260903140003 | 84 | 209 | 2.6 | 5.2 | 0.00 | 0.00 | 0.00 | 70 | 1016.8 |
| 20260903135503 | 84 | 189 | 1.7 | 4.3 | 0.00 | 0.00 | 0.00 | 71 | 1016.8 |
| 20260903135003 | 83 | 238 | 1.7 | 5.2 | 0.00 | 0.00 | 0.00 | 71 | 1016.8 |
| 20260903134507 | 83 | 192 | 1.7 | 5.2 | 0.00 | 0.00 | 0.00 | 72 | 1016.8 |
| 20260903134004 | 83 | 227 | 2.6 | 4.3 | 0.00 | 0.00 | 0.00 | 71 | 1016.8 |
| 20260903133506 | 83 | 226 | 2.6 | 4.3 | 0.00 | 0.00 | 0.00 | 72 | 1016.8 |
| 20260903133010 | 82 | 219 | 1.7 | 4.3 | 0.00 | 0.00 | 0.00 | 73 | 1016.9 |
| 20260903132508 | 82 | 212 | 2.6 | 4.3 | 0.00 | 0.00 | 0.00 | 73 | 1017.0 |
| 20260903132006 | 82 | 218 | 1.7 | 3.5 | 0.00 | 0.00 | 0.00 | 74 | 1017.1 |
| 20260903131514 | 81 | 213 | 1.7 | 4.3 | 0.00 | 0.00 | 0.00 | 74 | 1017.1 |
| 20260903131011 | 81 | 217 | 1.7 | 4.3 | 0.00 | 0.00 | 0.00 | 75 | 1017.1 |
| 20260903130510 | 80 | 236 | 1.7 | 4.3 | 0.00 | 0.00 | 0.00 | 76 | 1017.2 |
| 20260903130026 | 79 | 214 | 0.9 | 3.5 | 0.00 | 0.00 | 0.00 | 77 | 1017.2 |
| 20260903125503 | 79 | 215 | 1.7 | 3.5 | 0.00 | 0.00 | 0.00 | 77 | 1017.2 |
| 20260903125003 | 79 | 205 | 1.7 | 3.5 | 0.00 | 0.00 | 0.00 | 78 | 1017.2 |
| 20260903124505 | 79 | 213 | 1.7 | 2.6 | 0.00 | 0.00 | 0.00 | 79 | 1017.2 |
| 20260903124003 | 78 | 224 | 1.7 | 5.2 | 0.00 | 0.00 | 0.00 | 78 | 1017.2 |